Regional Weather Roundup
Issued by NWS

Home | Current Version | Previous Version | Graphics & Text | Print | Product List | Glossary On
Versions: 1 2 3 4 5 6 7 8 9 10 11 12 13 14 15 16 17 18 19 20 21 22 23 24 25 26 27 28 29 30 31 32 33 34 35 36 37 38 39 40 41 42 43 44 45 46 47 48 49 50
000
ASUS43 KTOP 161959
RWRKS

WEATHER ROUNDUP FOR KANSAS
NATIONAL WEATHER SERVICE GOODLAND KS
300 PM CDT WED APR 16 2014

NOTE:  "FAIR" INDICATES FEW OR NO CLOUDS BELOW 12,000 FEET WITH NO
SIGNIFICANT WEATHER AND/OR OBSTRUCTIONS TO VISIBILITY.

KSZ001>006-013>018-027>032-041>047-162100-
NORTHWEST KANSAS

CITY           SKY/WX    TMP DP  RH WIND       PRES   REMARKS
GOODLAND       SUNNY     59  27  29 N29G43    29.88R
HAYS           PTSUNNY   66  34  30 NW16G28   29.82R
HILL CITY      PTSUNNY   67  33  28 N23G36    29.84R
RUSSELL        PTSUNNY   67  34  29 NW18      29.79R
$$

KSZ061>065-074>080-084>089-162100-
SOUTHWEST KANSAS

CITY           SKY/WX    TMP DP  RH WIND       PRES   REMARKS
DODGE CITY     PTSUNNY   65  33  30 N18       29.86R
ELKHART          N/A     60  29  30 NE18        N/A
GARDEN CITY    CLOUDY    64  26  23 N16G25    29.87R
GREAT BEND     CLOUDY    66  32  28 NW15G21   29.81R
LIBERAL        PTSUNNY   64  28  25 NE17G25   29.90R
$$

KSZ066>073-081>083-090>101-162100-
SOUTHEAST KANSAS

CITY           SKY/WX    TMP DP  RH WIND       PRES   REMARKS
CHANUTE        SUNNY     63  32  31 S29G39    29.93S
COFFEYVILLE    SUNNY     64  32  30 S24G38    29.94F
HUTCHINSON     PTSUNNY   69  25  19 SW18G25   29.82R
NEWTON         MOSUNNY   70  28  21 SW25G36   29.85S
PARSONS        SUNNY     64  31  28 S25G35    29.94F
WICHITA INTL   MOSUNNY   71  26  18 SW23G35   29.83S
WICHITA JABRA  MOSUNNY   69  29  22 S30G39    29.83F
WINFIELD       MOSUNNY   69  31  24 S24G38    29.88F
$$

KSZ007>012-019>026-033>040-048>060-102>105-162100-
NORTHEAST KANSAS

CITY           SKY/WX    TMP DP  RH WIND       PRES   REMARKS
CONCORDIA      MOSUNNY   69  35  28 NW18G28   29.75R
EMPORIA        SUNNY     67  28  23 S33G45    29.84F
LAWRENCE       MOSUNNY   65  33  30 S31G41    29.86F
MANHATTAN      PTSUNNY   69  29  22 SW31G38   29.77R
OLATHE IND     SUNNY     64  32  30 S28G37    29.90R
OLATHE EXE     SUNNY     62  32  32 S23G37    29.89S
SALINA         CLOUDY    71  27  19 SW17G31   29.78F
TOPEKA BILLARD MOSUNNY   67  29  24 SW24G35   29.84S
TOPEKA FORBES  SUNNY     67  32  27 S29G37    29.83F
$$



USA.gov is the U.S. government's official web portal to all federal, state and local government web resources and services.